Flag for U.S.A. Weather past 2 weeks in Manassas, Virginia, U.S.A.

Now
72 °F

Clear.


Feels Like: 67 °F
Forecast: 67 / 86 °F
Wind: 8 mph from Northwest

Location: Manassas Municipal

Current Time: Jul 31, 2015 at 12:08:16 AM

Latest Report: Jul 30, 2015 at 11:55 PM


Visibility: 10 mi

Pressure: 29.92 "Hg

Humidity: 94%

Dew point: 70 °F

Location of ManassasLocation

Historic Weather in Manassas — Graph

°F

Manassas temperature yesterday

Maximum temperature yesterday: 90 °F (at 12:55 PM)
Minimum temperature yesterday: 73 °F (at 2:55 AM)
Average temperature yesterday: 77 °F

Past Weeks' High & Low Weather Summary

 TemperatureHumidityPressure
High93 °F (Jul 19, 3:45 PM)100% (Jul 16, 11:15 PM)30.09 "Hg (Jul 16, 11:15 PM)
Low59 °F (Jul 16, 5:55 AM)33% (Jul 24, 1:45 PM)29.65 "Hg (Jul 21, 5:45 PM)
Average74 °F84%29.94 "Hg
* Reported Jul 15 10:35 PM — Jul 30 10:55 PM, Manassas, Weather by CustomWeather, © 2015

Note: Actual official high and low records may vary slightly from our data, if they occured in-between our weather recording intervals... More about our weather records

Advertising

Manassas weather history for previous 24 hours

 ConditionsComfort  
Time TempWeatherWind HumidityBarometerVisibility
10:55 PM
Thu, Jul 30
73 °FDense fog.3 mph100%29.92 "Hg1 mi
10:35 PM73 °FDense fog.No wind100%29.92 "Hg1 mi
10:15 PM75 °FClear.No wind100%29.92 "Hg5 mi
8:55 PM79 °FSunny.No wind94%29.90 "Hg10 mi
7:55 PM81 °FPartly sunny.No wind94%29.89 "Hg10 mi
6:45 PM81 °FScattered clouds.7 mph94%29.87 "Hg10 mi
5:50 PM82 °FPartly sunny.5 mph84%29.86 "Hg10 mi
2:45 PM75 °FBroken clouds.No wind100%29.89 "Hg10 mi
12:55 PM90 °FSunny.5 mph63%29.89 "Hg10 mi
11:45 AM88 °FSunny.3 mph66%29.92 "Hg10 mi
10:55 AM84 °FSunny.5 mph74%29.92 "Hg10 mi
9:55 AM82 °FSunny.6 mph79%29.92 "Hg10 mi
8:55 AM79 °FSunny.7 mph89%29.92 "Hg10 mi
7:45 AM75 °FSunny.No wind100%29.93 "Hg10 mi
6:15 AM75 °FClear.No wind94%29.93 "Hg10 mi
5:55 AM75 °FClear.6 mph94%29.92 "Hg10 mi
5:35 AM75 °FClear.3 mph94%29.91 "Hg10 mi
5:15 AM75 °FClear.5 mph94%29.91 "Hg10 mi
4:55 AM73 °FClear.5 mph94%29.91 "Hg10 mi
4:35 AM73 °FClear.5 mph94%29.92 "Hg10 mi
4:15 AM73 °FClear.5 mph100%29.92 "Hg10 mi
3:55 AM73 °FPassing clouds.3 mph100%29.92 "Hg10 mi
3:35 AM73 °FPassing clouds.3 mph100%29.92 "Hg10 mi
3:15 AM73 °FPassing clouds.6 mph94%29.93 "Hg9 mi
2:55 AM73 °FClear.3 mph100%29.93 "Hg10 mi
2:35 AM75 °FClear.3 mph94%29.94 "Hg10 mi
2:15 AM75 °FClear.No wind94%29.95 "Hg10 mi
1:55 AM75 °FPassing clouds.No wind94%29.95 "Hg10 mi
1:35 AM75 °FPassing clouds.3 mph94%29.96 "Hg10 mi
1:15 AM75 °FPassing clouds.3 mph94%29.96 "Hg10 mi
12:55 AM77 °FOvercast.No wind89%29.96 "Hg10 mi
12:35 AM75 °FPassing clouds.3 mph94%29.96 "Hg10 mi
Weather by CustomWeather, © 2015

See weather overviewHow to use our weather pages